CAPE
0 0 0 0 0 0 0 0 0 0 0 0 115 428 758 1163 1045 1644 2058 1874 1704 1470 1479 1414 1627 1959 1982 1977 2004 1962 1864 1792 1791 1864 2002 2170 2335 2309 2205 2132 2178 2232 2196 2062 1802 1436 1159 1045 814
0 0 0 0 0 0 1 0 0 3 0 2 44 105 290 1335 1928 2129 2178 1514 1605 1343 1355 1447 1206 1466 1528 1715 1874 1937 1874 1838 1846 1832 1797 1882 2027 2164 2192 2150 2110 2083 2147 2129 2033 1815 1623 1475 1062
0 0 0 0 0 0 2 0 0 0 0 0 0 0 0 974 1878 1707 1431 1333 1426 1169 972 670 705 1048 1245 1209 1267 1370 1536 1754 1870 1936 1949 1867 1836 1919 2041 2097 2051 2007 1985 1923 2004 1961 1791 1759 1277
0 0 0 0 0 0 0 0 0 0 0 0 0 0 50 137 796 28 1222 1378 1208 786 392 0 0 64 160 189 325 629 770 974 1213 1494 1774 1956 2051 2003 2004 2019 1948 1958 2010 2000 2021 2071 2033 1980 1363
0 0 0 0 0 0 0 0 0 0 0 0 0 1 220 44 1 219 826 605 765 518 74 0 0 0 0 0 0 0 0 1 84 263 492 932 1401 1704 1975 2158 2206 2004 1938 2040 1977 1892 1854 1817 1275
0 0 0 0 0 0 0 0 0 0 0 0 0 87 99 37 0 0 0 88 66 30 0 0 0 0 0 0 0 0 0 0 0 0 0 0 290 743 1098 1490 1810 2129 1987 2044 1957 1854 1621 1628 1430
0 0 0 0 0 0 0 0 0 0 0 0 0 5 154 102 0 0 0 0 0 0 0 0 0 0 0 0 0 0 0 0 0 0 0 0 0 152 479 929 1376 1790 1885 1822 1783 1642 1526 1369 1184
0 0 0 0 0 0 0 0 0 0 0 0 0 0 366 32 0 0 0 0 0 0 0 0 0 0 0 0 0 0 0 0 0 0 0 0 0 14 583 854 866 932 1237 1552 1669 1536 1382 1284 1058
0 0 0 0 0 0 0 0 0 0 0 0 0 0 444 2 2 7 0 0 0 0 0 0 0 0 0 0 0 0 0 0 0 0 0 0 0 0 0 0 206 554 682 974 1274 1305 1260 1160 1005
0 0 0 0 0 0 0 0 0 0 0 0 0 19 32 19 4 0 0 0 0 0 0 0 0 0 0 0 0 0 0 0 0 0 0 0 0 0 0 0 11 80 623 909 927 1058 1156 1031 1548
0 0 0 0 0 0 0 0 0 0 0 0 0 0 0 2 0 0 0 0 0 0 0 0 0 0 0 0 0 0 0 0 0 0 0 0 0 0 0 0 0 0 35 178 1260 1585 1400 1468 1356
0 0 0 0 0 0 0 0 0 0 0 0 0 0 0 0 0 0 0 0 0 0 0 0 0 0 0 0 0 0 0 0 0 0 0 0 0 0 0 0 0 0 0 0 0 595 1109 1610 1765
0 0 0 0 0 0 0 0 0 0 0 0 0 0 0 0 0 0 0 0 0 0 0 0 0 0 0 0 0 0 0 0 0 0 0 0 0 0 0 0 0 0 0 0 0 0 2 334 924
0 0 0 0 0 0 0 0 0 0 0 0 0 0 0 0 0 0 0 0 0 0 0 0 0 0 0 0 0 0 0 0 0 0 0 0 0 0 0 0 0 0 0 0 0 0 0 0 62
0 0 0 0 0 0 0 0 0 0 0 0 0 0 0 0 0 0 0 0 0 0 0 0 0 0 0 0 0 0 0 0 0 0 0 0 0 0 0 0 0 0 0 0 0 0 0 0 0
0 0 0 0 0 0 0 0 0 0 0 0 0 0 0 0 0 0 0 0 0 0 0 0 0 0 0 0 0 0 0 0 0 0 0 0 0 0 0 0 0 0 0 0 0 0 0 0 0
0 0 0 0 0 0 0 0 0 0 0 0 0 0 0 0 0 0 0 0 0 0 0 0 0 0 0 0 0 0 0 0 0 0 0 0 0 0 1 0 0 1 0 0 0 0 0 0 0
7 5 0 0 0 0 0 0 0 0 0 0 0 0 0 0 0 0 0 0 0 0 0 0 0 0 0 0 0 0 0 0 0 0 0 0 0 1 2 0 2 3 1 0 2 9 7 3 0
0 0 0 0 0 0 0 0 0 0 0 0 0 0 0 0 0 0 0 0 0 0 0 0 0 0 0 0 0 0 0 0 0 0 0 0 0 1 3 2 1 4 2 5 6 7 5 5 2
0 0 0 0 0 0 0 0 0 0 0 0 0 0 0 0 0 0 0 0 0 0 0 0 0 0 0 0 0 0 0 0 0 0 0 0 0 0 0 4 5 8 6 7 9 5 9 6 10
0 0 0 0 0 0 0 0 0 0 0 0 0 0 0 0 0 0 0 0 0 0 0 0 0 0 0 0 0 0 0 0 0 0 0 0 0 0 1 4 7 9 5 10 6 5 8 16 13
0 0 0 0 0 0 0 0 0 0 0 0 0 0 0 0 0 0 0 0 0 0 0 0 0 0 0 0 0 0 0 0 0 0 0 0 0 0 0 4 6 10 7 6 10 8 8 13 12
0 0 0 0 0 0 0 0 0 0 0 0 0 0 0 0 0 0 0 0 0 0 0 0 0 0 0 0 0 0 0 0 0 0 0 0 0 0 0 4 9 9 7 3 2 7 8 12 15
0 0 0 0 0 0 0 0 0 0 0 0 0 0 0 0 0 0 0 0 0 0 0 0 0 0 0 0 0 0 0 0 0 0 0 0 0 0 1 3 7 10 8 12 15 12 7 8 5
0 0 0 0 3 0 0 0 0 0 0 0 0 0 0 0 0 0 0 0 0 0 0 0 0 0 0 0 0 0 0 0 0 0 0 0 0 0 3 7 8 9 7 8 18 12 9 8 14
0 0 0 0 3 2 0 0 0 0 0 0 0 0 0 0 0 0 0 0 0 0 0 0 0 0 0 0 0 0 0 0 0 0 1 2 3 4 5 8 10 7 5 5 15 19 13 5 15
0 18 1 26 2 21 0 0 4 0 0 0 0 0 0 0 0 0 0 0 0 0 0 0 0 0 0 0 0 0 0 1 2 4 6 7 9 7 6 11 10 5 4 3 8 21 20 18 18
23 24 17 2 34 65 17 11 6 0 0 0 0 0 0 0 0 0 0 0 0 0 0 0 0 0 0 0 0 0 0 1 3 4 6 10 12 14 12 10 9 5 4 14 16 19 22 23 20
7 4 27 25 27 39 29 13 0 0 0 1 0 0 0 0 0 0 0 0 0 0 0 0 0 0 0 0 0 0 2 2 3 4 6 9 9 9 11 9 8 5 3 7 21 8 16 21 21
21 15 16 96 23 46 45 8 0 0 0 0 0 0 0 0 0 0 0 0 0 0 0 0 0 0 0 0 0 1 3 4 4 7 5 7 9 12 11 10 9 6 6 15 17 17 23 18 25
CIN
-0 -0 -0 -0 -0 -0 -0 -0 -0 -0 -0 -0 -59 -17 -41 -59 -30 -6 -10 -1 -3 -17 -21 -36 -16 -1 -1 -0 -0 -2 -11 -23 -20 -12 -3 -0 -0 -0 -0 -0 -0 -0 -0 -0 -0 -4 -11 -19 -39
-0 -0 -0 -0 -0 -0 -0 -0 -0 -36 -0 -62 -91 -60 -55 -47 -58 -31 -5 -52 -23 -35 -24 -25 -36 -9 -10 -7 -4 -2 -3 -7 -13 -15 -18 -13 -3 -0 -0 -0 -0 -0 -0 -0 -0 -0 -0 -3 -25
-0 -0 -0 -0 -0 -0 -0 -0 -0 -0 -0 -0 -0 -0 -0 -71 -56 -67 -62 -32 -1 -38 -59 -115 -94 -38 -15 -15 -16 -15 -7 -0 -0 -0 -2 -9 -13 -5 -1 -0 -1 -1 -0 -0 -0 -0 -0 -1 -16
-0 -0 -0 -0 -0 -0 -0 -0 -0 -0 -0 -0 -0 -0 -318 -386 -209 -497 -72 -16 -17 -67 -171 -1 -10 -323 -245 -220 -149 -85 -66 -39 -24 -14 -2 -0 -0 -0 -0 -1 -4 -3 -2 -0 -0 -0 -0 -1 -9
-0 -0 -0 -0 -0 -0 -0 -0 -0 -0 -0 -0 -0 -13 -212 -456 -360 -324 -115 -120 -62 -108 -284 -0 -0 -0 -0 -0 -0 -0 -0 -45 -256 -227 -165 -72 -22 -4 -0 -0 -0 -2 -5 -2 -2 -2 -3 -3 -12
-0 -0 -0 -0 -0 -0 -0 -0 -0 -0 -0 -0 -0 -117 -211 -423 -0 -0 -0 -301 -318 -260 -0 -0 -0 -0 -0 -0 -0 -0 -0 -0 -0 -0 -0 -0 -231 -95 -53 -26 -11 -0 -2 -3 -6 -6 -8 -11 -14
-0 -0 -0 -0 -0 -0 -0 -0 -0 -0 -0 -0 -0 -22 -219 -323 -0 -0 -0 -0 -0 -0 -0 -0 -0 -0 -0 -0 -0 -0 -0 -0 -0 -0 -0 -0 -0 -289 -142 -74 -39 -13 -5 -4 -7 -13 -13 -21 -40
-0 -0 -0 -0 -0 -0 -0 -0 -0 -0 -0 -0 -0 -0 -119 -35 -0 -0 -0 -0 -0 -0 -0 -0 -0 -0 -0 -0 -0 -0 -0 -0 -0 -0 -0 -0 -0 -262 -89 -73 -78 -71 -34 -17 -16 -26 -25 -23 -48
-0 -0 -0 -0 -0 -0 -0 -0 -0 -0 -0 -0 -0 -0 -93 -50 -123 -339 -0 -0 -0 -0 -0 -0 -0 -0 -0 -0 -0 -0 -0 -0 -0 -0 -0 -0 -0 -0 -0 -0 -235 -124 -109 -62 -36 -45 -43 -30 -43
-0 -0 -0 -0 -0 -0 -0 -0 -0 -0 -0 -0 -0 -114 -255 -281 -283 -0 -0 -0 -0 -0 -0 -0 -0 -0 -0 -0 -0 -0 -0 -0 -0 -0 -0 -0 -0 -0 -0 -0 -161 -295 -108 -88 -113 -104 -72 -77 -0
-0 -0 -0 -0 -0 -0 -0 -0 -0 -0 -0 -0 -0 -0 -0 -188 -0 -0 -0 -0 -0 -0 -0 -0 -0 -0 -0 -0 -0 -0 -0 -0 -0 -0 -0 -0 -0 -0 -0 -0 -0 -0 -26 -204 -4 -11 -11 -5 -1
-0 -0 -0 -0 -0 -0 -0 -0 -0 -0 -0 -0 -0 -0 -0 -0 -0 -0 -0 -0 -0 -0 -0 -0 -0 -0 -0 -0 -0 -0 -0 -0 -0 -0 -0 -0 -0 -0 -0 -0 -0 -0 -0 -0 -0 -67 -38 -34 -40
-0 -0 -0 -0 -0 -0 -0 -0 -0 -0 -0 -0 -0 -0 -0 -0 -0 -0 -0 -0 -0 -0 -0 -0 -0 -0 -0 -0 -0 -0 -0 -0 -0 -0 -0 -0 -0 -0 -0 -0 -0 -0 -0 -0 -0 -0 -34 -210 -52
-0 -0 -0 -0 -0 -0 -0 -0 -0 -0 -0 -0 -0 -0 -0 -0 -0 -0 -0 -0 -0 -0 -0 -0 -0 -0 -0 -0 -0 -0 -0 -0 -0 -0 -0 -0 -0 -0 -0 -0 -0 -0 -0 -0 -0 -0 -0 -0 -352
-0 -0 -0 -0 -0 -0 -0 -0 -0 -0 -0 -0 -0 -0 -0 -0 -0 -0 -0 -0 -0 -0 -0 -0 -0 -0 -0 -0 -0 -0 -0 -0 -0 -0 -0 -0 -0 -0 -0 -0 -0 -0 -0 -0 -0 -0 -0 -0 -0
-0 -0 -0 -0 -0 -0 -0 -0 -0 -0 -0 -0 -0 -0 -0 -0 -0 -0 -0 -0 -0 -0 -0 -0 -0 -0 -0 -0 -0 -0 -0 -0 -0 -0 -0 -0 -0 -0 -0 -0 -0 -0 -0 -0 -0 -0 -0 -0 -0
-0 -0 -0 -0 -0 -0 -0 -0 -0 -0 -0 -0 -0 -0 -0 -0 -0 -0 -0 -0 -0 -0 -0 -0 -0 -0 -0 -0 -0 -0 -0 -0 -0 -0 -0 -0 -0 -0 -0 -0 -0 -0 -0 -0 -0 -0 -0 -0 -0
-0 -0 -0 -0 -0 -0 -0 -0 -0 -0 -0 -0 -0 -0 -0 -0 -0 -0 -0 -0 -0 -0 -0 -0 -0 -0 -0 -0 -0 -0 -0 -0 -0 -0 -0 -0 -0 -0 -0 -0 -0 -0 -0 -0 -0 -0 -0 -0 -0
-0 -0 -0 -0 -0 -0 -0 -0 -0 -0 -0 -0 -0 -0 -0 -0 -0 -0 -0 -0 -0 -0 -0 -0 -0 -0 -0 -0 -0 -0 -0 -0 -0 -0 -0 -0 -0 -0 -0 -0 -0 -0 -0 -0 -0 -0 -0 -0 -0
-0 -0 -0 -0 -0 -0 -0 -0 -0 -0 -0 -0 -0 -0 -0 -0 -0 -0 -0 -0 -0 -0 -0 -0 -0 -0 -0 -0 -0 -0 -0 -0 -0 -0 -0 -0 -0 -0 -0 -0 -0 -0 -0 -0 -0 -0 -0 -0 -0
-0 -0 -0 -0 -0 -0 -0 -0 -0 -0 -0 -0 -0 -0 -0 -0 -0 -0 -0 -0 -0 -0 -0 -0 -0 -0 -0 -0 -0 -0 -0 -0 -0 -0 -0 -0 -0 -0 -0 -0 -0 -0 -0 -0 -0 -0 -0 -0 -0
-0 -0 -0 -0 -0 -0 -0 -0 -0 -0 -0 -0 -0 -0 -0 -0 -0 -0 -0 -0 -0 -0 -0 -0 -0 -0 -0 -0 -0 -0 -0 -0 -0 -0 -0 -0 -0 -0 -0 -0 -0 -0 -0 -0 -0 -0 -0 -0 -0
-0 -0 -0 -0 -0 -0 -0 -0 -0 -0 -0 -0 -0 -0 -0 -0 -0 -0 -0 -0 -0 -0 -0 -0 -0 -0 -0 -0 -0 -0 -0 -0 -0 -0 -0 -0 -0 -0 -0 -0 -0 -0 -0 -0 -0 -0 -0 -0 -0
-0 -0 -0 -0 -0 -0 -0 -0 -0 -0 -0 -0 -0 -0 -0 -0 -0 -0 -0 -0 -0 -0 -0 -0 -0 -0 -0 -0 -0 -0 -0 -0 -0 -0 -0 -0 -0 -0 -0 -0 -0 -0 -0 -0 -0 -1 -0 -0 -0
-0 -0 -0 -0 -0 -0 -0 -0 -0 -0 -0 -0 -0 -0 -0 -0 -0 -0 -0 -0 -0 -0 -0 -0 -0 -0 -0 -0 -0 -0 -0 -0 -0 -0 -0 -0 -0 -0 -0 -0 -0 -0 -0 -0 -0 -0 -0 -0 -0
-0 -0 -0 -0 -0 -0 -0 -0 -0 -0 -0 -0 -0 -0 -0 -0 -0 -0 -0 -0 -0 -0 -0 -0 -0 -0 -0 -0 -0 -0 -0 -0 -0 -0 -0 -0 -0 -0 -0 -0 -0 -0 -0 -0 -0 -0 -0 -0 -0
-0 -0 -0 -0 -0 -0 -0 -0 -1 -0 -0 -0 -0 -0 -0 -0 -0 -0 -0 -0 -0 -0 -0 -0 -0 -0 -0 -0 -0 -0 -0 -0 -0 -0 -0 -0 -0 -0 -0 -0 -0 -0 -0 -0 -1 -0 -0 -0 -0
-3 -1 -7 -1 -0 -0 -0 -0 -0 -0 -0 -0 -0 -0 -0 -0 -0 -0 -0 -0 -0 -0 -0 -0 -0 -0 -0 -0 -0 -0 -0 -0 -0 -0 -0 -0 -0 -0 -0 -0 -0 -0 -0 -0 -0 -0 -0 -0 -0
-3 -3 -1 -1 -2 -0 -0 -0 -0 -0 -0 -0 -0 -0 -0 -0 -0 -0 -0 -0 -0 -0 -0 -0 -0 -0 -0 -0 -0 -0 -0 -0 -0 -0 -0 -0 -0 -0 -0 -0 -0 -0 -0 -0 -0 -0 -0 -0 -0
-2 -3 -3 -0 -0 -0 -0 -0 -0 -0 -0 -0 -0 -0 -0 -0 -0 -0 -0 -0 -0 -0 -0 -0 -0 -0 -0 -0 -0 -0 -0 -0 -0 -0 -0 -0 -0 -0 -0 -0 -0 -0 -0 -0 -0 -0 -0 -0 -0
Wind_Speed
15 15 9 8 9 9 17 5 9 5 6 6 8 9 18 18 12 8 8 9 12 13 9 14 10 11 10 9 8 9 9 9 9 8 7 6 5 4 3 3 4 4 5 5 4 4 3 2 2
13 10 9 9 10 14 10 13 10 13 13 9 10 8 14 18 19 13 10 15 15 11 10 13 11 12 13 13 11 10 9 8 7 5 5 4 3 4 4 4 4 5 6 7 6 6 7 5 4
14 10 11 11 14 15 6 7 10 12 12 9 5 12 7 11 15 6 10 10 10 12 12 14 14 14 14 14 13 12 12 10 8 7 6 4 3 3 4 4 6 6 7 7 8 7 7 6 5
7 7 8 11 18 3 8 2 13 15 7 6 13 11 9 11 8 3 5 9 11 13 13 15 16 15 15 15 14 13 12 11 10 10 8 7 6 6 7 6 6 7 7 8 7 8 7 6 7
9 8 11 15 18 5 1 1 13 14 11 10 11 9 10 9 11 6 10 8 10 11 12 13 14 15 15 16 15 15 14 14 13 12 11 9 8 8 8 8 8 8 8 8 7 6 6 6 7
10 6 12 14 15 7 3 5 10 13 9 7 5 13 10 14 11 9 8 9 10 10 10 10 13 14 15 15 15 15 15 14 13 13 13 11 8 6 6 7 8 9 9 9 8 6 6 7 8
13 11 15 18 12 6 7 5 10 11 10 10 11 11 11 12 11 10 10 10 11 10 8 6 6 8 12 13 11 11 12 11 11 11 13 13 12 10 7 7 7 7 8 9 10 8 8 8 9
8 9 18 11 13 9 9 8 10 12 11 7 6 7 11 17 15 13 11 10 10 8 7 6 6 6 6 5 10 4 5 5 7 7 9 14 13 10 10 10 2 8 10 9 10 10 9 9 10
9 10 13 14 7 5 10 8 6 7 10 5 4 5 19 22 18 15 13 11 9 7 6 6 6 7 5 4 5 2 3 2 5 9 10 10 7 9 10 10 9 9 10 11 11 11 10 9 11
10 11 16 12 9 8 7 12 13 9 12 6 9 13 19 20 18 16 14 11 9 7 7 6 7 8 7 6 6 5 5 6 7 9 11 8 9 7 9 10 7 12 12 12 14 14 12 9 11
8 12 9 5 6 8 7 11 11 15 15 14 14 17 19 17 17 15 13 11 9 7 6 7 6 7 7 5 5 4 4 5 5 7 9 9 8 7 6 6 7 8 7 8 8 8 11 13 11
12 14 9 10 2 9 12 11 9 13 3 2 18 17 18 17 14 11 10 9 9 7 6 6 7 6 7 5 5 5 5 5 5 7 8 8 6 7 7 6 8 7 6 10 9 8 13 12 14
15 15 9 10 9 12 12 11 11 14 6 5 17 17 17 15 14 11 9 7 7 6 5 6 7 6 6 5 6 5 6 5 6 6 7 8 8 7 8 8 7 8 8 8 8 10 10 12 14
12 10 13 13 14 14 14 15 10 13 7 10 16 17 16 15 14 11 10 9 7 5 4 5 6 6 6 6 6 4 5 7 6 6 6 8 8 8 8 8 7 7 8 9 9 9 10 11 11
12 14 15 18 17 16 14 19 21 18 13 15 16 15 16 15 15 13 10 8 7 5 4 4 4 6 6 6 6 5 5 6 6 6 7 9 9 10 11 8 8 8 9 10 9 10 10 10 10
17 17 16 15 18 15 13 17 21 18 17 17 17 17 16 17 15 12 9 8 6 5 4 4 4 5 6 6 5 5 5 5 5 6 6 10 11 11 11 9 8 9 9 8 8 9 10 10 11
16 15 16 14 12 10 13 16 16 15 17 17 16 16 16 16 15 12 10 9 7 6 5 4 4 5 5 5 4 3 3 4 5 5 6 10 10 11 10 9 8 10 9 8 8 9 10 10 11
13 13 10 13 5 8 15 18 17 14 15 16 18 17 16 16 15 12 10 6 7 5 5 4 3 5 4 3 3 2 2 4 4 5 6 8 8 10 10 9 9 10 9 9 9 11 11 11 11
15 13 17 15 11 5 15 17 16 15 16 16 17 18 18 18 15 13 9 7 7 5 5 4 4 4 4 3 4 4 5 5 5 5 8 8 9 10 10 8 9 9 9 11 11 10 12 11 12
15 17 17 16 16 8 14 19 20 21 18 18 19 19 21 19 17 13 11 9 7 6 5 4 4 4 4 4 3 4 5 4 4 4 7 7 10 10 10 11 10 11 9 11 11 11 10 9 10
16 18 16 16 16 13 19 23 21 25 22 15 20 19 21 21 20 16 14 11 9 7 5 4 4 4 5 6 4 4 4 3 4 7 6 8 9 9 10 10 10 10 10 9 11 10 11 9 9
18 16 15 16 16 15 5 15 19 15 17 16 19 18 17 19 18 17 14 11 8 7 6 5 4 4 5 6 6 7 6 7 7 6 6 8 9 10 10 10 10 11 9 10 9 10 9 9 9
20 13 13 16 18 20 22 16 13 18 17 16 17 17 16 17 18 16 13 12 8 6 6 5 5 5 5 6 7 6 7 7 7 7 10 10 9 9 10 10 12 10 9 10 11 12 10 9 9
11 8 15 15 14 18 17 18 19 13 10 19 18 16 17 17 16 14 11 9 9 7 6 5 4 6 5 5 6 6 7 8 7 8 8 8 9 8 10 12 12 12 12 11 9 10 12 11 12
12 11 11 14 14 19 15 20 18 8 7 5 4 14 15 15 14 13 11 10 9 7 6 5 5 6 5 5 5 6 7 8 8 9 8 11 9 9 10 13 13 12 13 12 11 11 11 12 12
14 16 11 12 16 18 18 15 9 9 9 7 2 8 16 16 14 14 14 11 8 6 6 5 5 4 5 5 6 6 7 6 7 9 9 8 9 10 13 12 13 14 14 13 11 9 10 12 11
17 18 17 18 20 15 17 22 9 8 9 8 9 9 13 15 14 14 12 9 9 7 6 5 4 5 5 5 5 6 6 7 8 9 9 9 11 11 13 14 13 13 14 15 14 9 11 11 11
16 5 5 5 6 11 16 19 17 10 12 8 11 13 13 14 14 14 12 11 9 7 8 6 5 5 5 5 5 5 6 7 7 8 9 11 12 13 13 14 14 14 14 14 13 11 11 12 10
8 12 14 10 5 10 15 13 10 9 4 10 8 10 13 14 14 13 11 10 8 7 6 5 5 5 4 5 5 5 6 7 7 7 9 11 13 13 13 13 14 14 14 13 13 14 13 14 13
13 16 20 13 14 9 15 19 16 8 4 5 9 9 11 13 14 14 12 9 7 6 5 5 4 4 5 5 6 6 8 9 9 9 10 10 12 13 13 14 14 14 14 14 13 14 13 15 16
Wind_Direction
273 240 257 263 242 231 263 175 26 150 116 354 36 12 62 37 15 56 87 73 69 61 56 75 43 53 59 62 55 53 51 51 46 39 35 27 11 344 327 297 286 269 267 261 245 251 260 274 284
295 287 243 271 254 254 239 98 211 106 92 100 97 123 85 75 83 103 96 53 68 76 67 61 48 56 58 56 55 51 51 48 46 39 39 35 5 333 324 308 307 297 288 288 274 268 269 269 269
260 268 272 240 244 264 35 159 110 99 146 138 105 70 88 96 48 62 85 96 88 74 68 53 44 48 51 48 49 48 43 38 32 24 16 358 321 291 289 290 281 296 293 289 285 274 272 270 271
272 211 238 255 261 233 350 89 123 157 162 157 129 104 90 27 68 98 126 112 92 83 75 58 50 49 51 47 43 42 40 36 32 27 16 1 335 306 285 282 279 276 281 285 289 296 285 268 268
237 256 260 240 257 87 337 194 157 170 151 153 159 123 99 87 99 110 95 87 91 83 81 74 63 59 51 45 39 33 34 32 30 23 13 0 347 336 323 302 282 278 277 273 285 297 294 272 274
264 260 256 256 234 125 229 183 197 191 145 139 177 131 95 120 125 109 103 99 88 86 76 83 87 69 62 50 39 32 26 22 20 17 5 347 330 312 314 312 305 279 278 278 279 279 283 274 266
257 279 270 288 295 152 196 213 215 209 165 179 139 155 117 138 123 131 130 116 104 94 90 91 74 92 103 74 47 35 26 18 15 8 1 340 321 297 285 281 279 289 279 274 271 270 266 266 266
281 279 266 261 266 246 116 210 223 223 186 86 172 163 163 137 144 149 140 119 106 99 90 72 61 56 51 50 60 50 30 3 336 345 6 324 288 260 253 250 13 334 311 292 275 271 264 261 262
263 265 261 255 233 268 126 202 217 351 121 182 79 348 123 144 153 148 142 130 122 107 95 64 49 35 30 57 41 328 38 249 336 353 6 321 344 323 338 335 342 317 293 283 279 272 266 258 257
258 276 278 18 351 303 167 227 174 215 173 149 135 101 130 152 161 161 159 147 140 124 94 64 42 31 9 28 11 7 13 5 4 1 351 341 334 329 312 292 283 268 266 263 246 238 240 238 262
275 266 352 301 295 271 231 239 159 220 192 179 171 150 155 163 169 170 153 152 137 114 81 59 55 36 14 19 357 11 2 355 349 4 357 337 330 350 329 320 321 337 297 288 300 278 241 240 245
271 265 286 291 265 269 256 240 193 241 17 83 148 162 162 169 170 160 150 145 146 124 91 69 50 35 27 349 16 356 352 349 354 353 5 343 338 344 339 326 328 305 318 322 304 306 318 316 329
258 269 260 267 252 251 263 262 231 229 109 165 136 164 170 170 165 158 150 127 130 120 91 62 52 36 16 12 10 3 348 4 337 348 12 349 336 348 326 330 317 318 316 310 311 312 309 307 305
315 293 282 265 256 248 252 239 226 242 155 151 163 173 176 175 161 157 164 154 145 119 88 67 50 35 13 15 8 349 21 341 350 346 5 354 339 348 330 323 327 321 332 332 316 304 299 292 296
276 270 263 246 245 251 237 246 226 234 180 176 181 185 182 175 174 175 173 155 143 124 102 66 60 29 16 11 4 350 22 335 350 347 353 2 350 346 334 325 327 333 337 311 313 312 299 288 279
260 256 263 258 217 225 247 256 231 198 182 191 193 189 184 182 181 163 170 151 148 121 118 87 40 27 8 14 350 347 9 335 350 347 343 7 347 350 332 328 331 345 316 320 333 323 321 313 303
234 259 261 255 190 238 208 256 267 148 189 197 200 193 191 182 190 169 173 162 149 143 133 95 69 26 2 10 347 318 328 344 347 340 352 1 339 344 332 321 328 333 320 326 330 335 325 316 308
279 248 238 266 247 212 247 235 253 177 209 222 197 204 196 192 191 168 180 157 151 142 120 101 58 28 344 330 321 325 322 353 348 351 10 343 343 337 331 321 342 332 330 334 341 326 325 312 304
298 285 282 277 253 238 264 260 255 225 198 223 223 206 202 200 188 166 177 179 158 143 129 94 77 34 351 2 358 349 353 340 347 342 356 345 347 339 330 331 332 335 337 334 325 327 323 324 322
254 261 262 271 269 263 264 264 260 250 219 209 226 208 206 193 183 175 182 182 188 140 136 129 83 55 18 9 349 332 322 334 328 336 336 348 343 338 332 338 334 343 334 326 333 335 322 317 317
249 258 268 275 287 267 265 266 262 257 247 203 225 227 205 194 182 184 191 184 176 154 141 120 86 59 45 359 349 347 313 319 354 354 341 355 336 336 332 333 333 333 326 325 328 325 318 317 313
250 254 252 269 276 272 313 285 285 299 209 208 220 226 211 193 181 188 186 179 177 146 137 120 89 48 46 16 1 355 350 342 349 327 341 324 336 334 336 336 332 331 324 322 325 325 318 308 303
261 273 289 267 269 275 260 260 257 256 204 212 218 213 214 193 180 187 182 174 162 156 131 121 117 75 53 22 5 348 358 346 335 334 335 327 338 334 335 337 334 329 325 320 318 316 315 308 302
263 268 245 251 256 256 257 259 266 278 307 189 200 204 202 185 176 170 175 154 154 161 140 123 101 85 53 22 12 3 352 339 334 333 320 339 326 334 339 342 330 331 328 325 317 311 307 305 302
242 231 249 238 227 255 252 247 265 149 108 29 174 185 183 171 168 169 166 188 165 148 129 124 90 87 59 25 10 1 349 327 329 330 339 331 330 333 333 336 336 328 321 316 312 311 305 300 298
214 236 238 263 256 271 291 253 267 53 102 127 132 178 164 169 164 174 182 180 159 162 123 113 87 73 46 19 6 1 350 343 331 348 332 320 330 327 335 332 326 320 315 312 309 309 304 303 302
242 242 235 259 267 273 268 274 250 160 148 156 159 163 164 167 174 184 170 170 163 148 118 100 82 63 48 18 9 360 350 352 349 338 328 335 326 330 329 329 324 320 317 316 314 305 301 303 302
240 249 229 233 244 250 253 251 258 207 169 163 150 161 163 167 174 176 167 171 165 146 121 104 72 50 37 20 13 5 360 349 350 341 340 329 329 325 330 328 326 324 319 317 314 312 308 309 301
200 235 242 236 247 273 270 271 42 48 38 164 159 167 169 173 175 166 172 172 151 138 114 106 79 54 35 23 1 359 358 351 342 348 348 334 326 329 329 327 327 322 320 320 318 314 312 313 311
286 209 251 235 229 231 254 260 298 132 94 139 153 170 166 171 173 168 161 157 151 125 110 96 81 51 27 20 8 7 1 352 346 347 347 337 324 331 331 328 326 324 325 322 321 316 315 320 313